Change the Weather History Date:

Monday, September 24, 2012

  Actual Average Record
Temperature  
Mean Temperature 64 °F -  
Max Temperature 83 °F 76 °F 94 °F (2001)
Min Temperature 47 °F 47 °F 33 °F (2000)
Growing Degree Days 14 (Base 50)    
Moisture  
Dew Point 47 °F    
Average Humidity 61    
Maximum Humidity 93    
Minimum Humidity 30    
Precipitation  
Precipitation 0.00 in - - ()
Sea Level Pressure  
Sea Level Pressure 29.99 in    
Wind  
Wind Speed 5 mph (NNE)    
Max Wind Speed 12 mph    
Max Gust Speed -    
Visibility 10 miles    
Events      
Averages and records for this station are not official NWS values.
T = Trace of Precipitation, MM = Missing Value Source: NWS Daily Summary

Daily Weather History Graph

Daily Weather History Graph

Search for Another Location

Airport or City:

Trip Planner

Search our weather history database for the weather conditions in past years. The results will help you decide how hot, cold, wet, or windy it might be!

Date:

Astronomy

Sep. 24, 2012 Rise Set
Actual Time 6:48 AM PDT 6:50 PM PDT
Civil Twilight 6:18 AM PDT 7:20 PM PDT
Nautical Twilight 5:43 AM PDT 7:56 PM PDT
Astronomical Twilight 5:06 AM PDT 8:32 PM PDT
Moon 3:55 PM PDT (9/24) 12:52 AM PDT (9/24)
Length of Visible Light 13h 02m
Length of Day
12h 02m
Waxing Gibbous, 71% of the Moon is Illuminated
Sep 24
Waxing Gibbous
Sep 29
Full
Oct 8
Last Quarter
Oct 15
New
Oct 21
First Quarter

Hourly Weather History & Observations

Time (PDT) Temp. Dew Point Humidity Pressure Visibility Wind Dir Wind Speed Gust Speed Precip Events Conditions
12:50 AM 53.6 °F 46.6 °F 77% 30.01 in 10.0 mi West 4.6 mph - N/A   Clear
1:50 AM 51.6 °F 45.0 °F 78% 30.01 in 10.0 mi North 4.6 mph - N/A   Clear
2:50 AM 51.4 °F 46.0 °F 82% 30.01 in 10.0 mi NE 4.6 mph - N/A   Clear
3:50 AM 49.3 °F 45.7 °F 87% 30.01 in 10.0 mi ESE 3.5 mph - N/A   Clear
4:50 AM 47.5 °F 45.1 °F 92% 30.03 in 10.0 mi SSE 3.5 mph - N/A   Clear
5:50 AM 47.8 °F 45.7 °F 92% 30.04 in 10.0 mi NE 4.6 mph - N/A   Clear
6:50 AM 48.2 °F 46.2 °F 93% 30.05 in 10.0 mi NNW 4.6 mph - N/A   Clear
7:50 AM 51.1 °F 47.5 °F 87% 30.05 in 10.0 mi WNW 4.6 mph - N/A   Partly Cloudy
8:50 AM 55.4 °F 49.1 °F 79% 30.06 in 10.0 mi NNW 4.6 mph - N/A   Partly Cloudy
9:50 AM 61.3 °F 48.7 °F 63% 30.06 in 10.0 mi North 4.6 mph - N/A   Partly Cloudy
10:50 AM 66.0 °F 48.9 °F 54% 30.04 in 10.0 mi North 4.6 mph - N/A   Clear
11:50 AM 70.7 °F 48.7 °F 46% 30.02 in 9.0 mi East 5.8 mph - N/A   Clear
12:50 PM 74.8 °F 48.6 °F 39% 29.99 in 9.0 mi SSE 4.6 mph - N/A   Clear
1:50 PM 77.9 °F 48.9 °F 36% 29.97 in 9.0 mi East 8.1 mph - N/A   Clear
2:50 PM 80.4 °F 48.9 °F 33% 29.94 in 8.0 mi SE 4.6 mph - N/A   Clear
3:50 PM 82.2 °F 48.0 °F 30% 29.92 in 10.0 mi East 5.8 mph - N/A   Partly Cloudy
4:50 PM 82.0 °F 47.3 °F 30% 29.90 in 10.0 mi SE 4.6 mph - N/A   Partly Cloudy
5:50 PM 81.3 °F 47.1 °F 30% 29.90 in 10.0 mi West 4.6 mph - N/A   Scattered Clouds
6:50 PM 72.9 °F 49.8 °F 44% 29.90 in 10.0 mi North 4.6 mph - N/A   Mostly Cloudy
10:50 PM 65.5 °F 47.3 °F 52% 29.91 in 10.0 mi WNW 11.5 mph - N/A   Scattered Clouds